San Diego, CA

5:46 PM PST on December 05, 2016 (GMT -0800)
San Diego International-Lindbergh

Weather History for KSAN - May, 2014

Change the Weather History Date:

Wednesday, May 14, 2014

  Actual Average Record
Temperature  
Mean Temperature 80 °F 64 °F  
Max Temperature 93 °F 68 °F 93 °F (2014)
Min Temperature 67 °F 59 °F 46 °F (1880)
Degree Days  
Heating Degree Days 0 2  
Month to date heating degree days 8 30  
Since 1 July heating degree days 545 1179  
Cooling Degree Days 15 1  
Month to date cooling degree days 87 14  
Year to date cooling degree days 171 38  
Growing Degree Days 30 (Base 50)    
Moisture  
Dew Point 29 °F    
Average Humidity 31    
Maximum Humidity 55    
Minimum Humidity 6    
Precipitation  
Precipitation 0.00 in 0.00 in 1.63 in (2015)
Month to date precipitation T 0.07  
Year to date precipitation 2.82 6.91  
Since 1 July precipitation 5.06  
Snow  
Snow 0.00 in - - ()
Month to date snowfall 0.0  
Year to date snowfall 0.0  
Snow Depth 0.00 in    
Sea Level Pressure  
Sea Level Pressure 29.99 in    
Wind  
Wind Speed 6 mph (NW)    
Max Wind Speed 15 mph    
Max Gust Speed 20 mph    
Visibility 10 miles    
Events      
T = Trace of Precipitation, MM = Missing Value Source: NWS Daily Summary

Daily Weather History Graph

Daily Weather History Graph

Search for Another Location

Airport or City:

Trip Planner

Search our weather history database for the weather conditions in past years. The results will help you decide how hot, cold, wet, or windy it might be!

Date:

Astronomy

May. 14, 2014 Rise Set
Actual Time 5:50 AM PDT 7:40 PM PDT
Civil Twilight 5:23 AM PDT 8:07 PM PDT
Nautical Twilight 4:50 AM PDT 8:39 PM PDT
Astronomical Twilight 4:16 AM PDT 9:14 PM PDT
Moon 7:51 PM PDT (5/14) 5:50 AM PDT (5/14)
Length of Visible Light 14h 43m
Length of Day
13h 49m
Full, 100% of the Moon is Illuminated
May 14
Full
May 14
Full
May 21
Last Quarter
May 28
New
Jun 5
First Quarter

Hourly Weather History & Observations

Time (PDT) Temp. Dew Point Humidity Pressure Visibility Wind Dir Wind Speed Gust Speed Precip Events Conditions
12:51 AM 72.0 °F 46.9 °F 41% 30.02 in 10.0 mi NNW 5.8 mph - N/A   Clear
1:51 AM 70.0 °F 51.1 °F 51% 30.02 in 10.0 mi North 3.5 mph - N/A   Clear
2:51 AM 68.0 °F 51.1 °F 55% 30.01 in 10.0 mi Calm Calm - N/A   Clear
3:51 AM 69.1 °F 37.9 °F 32% 30.00 in 10.0 mi Calm Calm - N/A   Clear
4:51 AM 68.0 °F 36.0 °F 31% 29.99 in 10.0 mi Calm Calm - N/A   Clear
5:51 AM 68.0 °F 23.0 °F 18% 30.00 in 10.0 mi Variable 3.5 mph - N/A   Clear
6:51 AM 71.1 °F 25.0 °F 18% 30.00 in 10.0 mi NW 3.5 mph - N/A   Clear
7:51 AM 75.0 °F 34.0 °F 22% 30.01 in 10.0 mi South 3.5 mph - N/A   Clear
8:51 AM 84.0 °F 24.1 °F 11% 30.01 in 10.0 mi NNW 5.8 mph - N/A   Clear
9:51 AM 88.0 °F 15.1 °F 7% 30.00 in 10.0 mi West 4.6 mph - N/A   Clear
10:51 AM 90.0 °F 14.0 °F 6% 30.00 in 10.0 mi WSW 8.1 mph - N/A   Clear
11:51 AM 93.0 °F 18.0 °F 6% 29.99 in 10.0 mi NW 9.2 mph - N/A   Clear
12:51 PM 91.4 °F 26.6 °F 10% 29.99 in 10.0 mi NW 8.1 mph - N/A   Partly Cloudy
1:51 PM 89.6 °F 23.0 °F 9% 29.99 in 10.0 mi West 10.4 mph - N/A   Partly Cloudy
2:51 PM 89.6 °F 30.2 °F 12% 29.97 in 10.0 mi WNW 11.5 mph - N/A   Partly Cloudy
3:51 PM 91.4 °F 23.0 °F 8% 29.96 in 10.0 mi WNW 12.7 mph - N/A   Partly Cloudy
4:51 PM 87.8 °F 35.6 °F 16% 29.95 in 10.0 mi WNW 11.5 mph - N/A   Partly Cloudy
5:51 PM 87.8 °F 39.2 °F 18% 29.95 in 10.0 mi NW 10.4 mph - N/A   Partly Cloudy
6:51 PM 87.8 °F 35.6 °F 16% 29.95 in 10.0 mi WNW 6.9 mph - N/A   Partly Cloudy
7:51 PM 84.2 °F 26.6 °F 12% 29.97 in 10.0 mi North 6.9 mph - N/A   Partly Cloudy
8:51 PM 82.4 °F 24.8 °F 12% 29.99 in 10.0 mi NNW 3.5 mph - N/A   Partly Cloudy
9:51 PM 82.4 °F 21.2 °F 10% 30.00 in 10.0 mi North 3.5 mph - N/A   Partly Cloudy
10:51 PM 80.6 °F 24.8 °F 13% 30.01 in 10.0 mi NE 3.5 mph - N/A   Partly Cloudy
11:51 PM 77.0 °F 26.6 °F 16% 30.00 in 10.0 mi Calm Calm - N/A   Partly Cloudy